Location: Anciles
(42.5833°N, 0.5167°E)
Time: 23:40:07
(UTC+00:00)

Envisat - Pass Details

Date: 10 December 2019
Orbit: 764 x 766 km, 98.1° (Epoch: 24 January)

Event Time Altitude Azimuth Distance (km) Brightness Sun altitude
Rises 17:35:00 0° 157° (SSE) 3,219 6.2 -12.5°
Reaches altitude 10° 17:37:19 10° 154° (SSE) 2,297 5.4 -12.9°
Maximum altitude 17:42:19 65° 73° (ENE) 843 2.9 -13.8°
Drops below altitude 10° 17:47:22 10° 353° (N) 2,313 5.4 -14.7°
Sets 17:49:41 0° 351° (N) 3,244 6.2 -15.1°
